Home   Weather   Pécs   Past weeks

Flag for Hungary Past Weather in Pécs, Hungary — Yesterday and Last 2 Weeks

Now
20 °F

Clear.


Feels Like: 20 °F
Forecast: 14 / 24 °F
Wind: 2 mph from West

Location: Pecs / Pogany

Current Time: Jan 21, 2017 at 7:39:35 am

Latest Report: Jan 21, 2017 at 7:00 am


Visibility: 4 mi

Pressure: 30.61 "Hg

Humidity: 81%

Dew Point: 15 °F

Location of PécsLocation

Past Weather in Pécs — Graph

°F

Pécs Temperature Yesterday

Maximum temperature yesterday: 28 °F (at 3:00 pm)
Minimum temperature yesterday: 16 °F (at 8:00 am)
Average temperature yesterday: 21 °F

High & Low Weather Summary for the Past Weeks

 TemperatureHumidityPressure
High39 °F (Jan 12, 3:00 pm)100% (Jan 14, 7:00 am)30.71 "Hg (Jan 14, 7:00 am)
Low6 °F (Jan 8, 2:00 am)29% (Jan 7, 3:00 pm)29.47 "Hg (Jan 13, 5:00 pm)
Average23 °F75%30.25 "Hg
* Reported Jan 6 6:00 am — Jan 21 6:00 am, Pécs, Weather by CustomWeather, © 2017

Note: Actual official high and low records may vary slightly from our data, if they occured in-between our weather recording intervals... More about our weather records

Advertising

Pécs Weather History for the Previous 24 Hours

Scroll right to see more
 ConditionsComfort  
Time TempWeatherWind HumidityBarometerVisibility
6:00 am
Sat, Jan 21
19 °FCold.1 mph78%30.61 "HgN/A
5:00 am20 °FCold.2 mph79%30.62 "HgN/A
4:00 am20 °FCold.2 mph80%30.62 "HgN/A
3:00 am19 °FCold.2 mph84%30.63 "HgN/A
2:00 am19 °FCold.2 mph84%30.63 "HgN/A
1:00 am19 °FCold.2 mph92%30.65 "HgN/A
12:00 am18 °FCold.2 mph91%30.66 "HgN/A
11:00 pm
Fri, Jan 20
20 °FCold.2 mph87%30.66 "HgN/A
10:00 pm17 °FCold.No wind93%30.67 "HgN/A
9:00 pm21 °FCold.1 mph88%30.66 "HgN/A
8:00 pm22 °FCold.No wind85%30.66 "HgN/A
7:00 pm20 °FCold.1 mph81%30.66 "HgN/A
6:00 pm23 °FClear.1 mph81%30.66 "Hg4 mi
5:00 pm25 °FClear.2 mph78%30.66 "Hg4 mi
4:00 pm27 °FSunny.No wind74%30.65 "Hg4 mi
3:00 pm28 °FSunny.1 mph71%30.66 "Hg4 mi
2:00 pm27 °FFog.2 mph76%30.66 "Hg3 mi
1:00 pm27 °FSunny.1 mph76%30.68 "Hg3 mi
12:00 pm26 °FFog.1 mph78%30.69 "Hg3 mi
11:00 am24 °FFog.No wind77%30.71 "Hg2 mi
10:00 am20 °FSunny.No wind89%30.71 "Hg2 mi
9:00 am18 °FFog.No wind91%30.71 "Hg2 mi
8:00 am16 °FSunny.No wind94%30.71 "Hg4 mi
7:00 am20 °FClear.2 mph91%30.69 "Hg4 mi
Weather by CustomWeather, © 2017

See weather overviewHow to use our weather pages